This is the latest recevied weather packets stored in our database for station/object BI2QYU-13. If no packets are shown the sender has not sent any weather packets the latest 10 day(s).
| Time | Temp. | Humidity | Pressure | Rain* | Wind** | Luminosity | Snow |
|---|---|---|---|---|---|---|---|
| 1777820120 | 26.67° C | 32% | 1025 hPa | 0 mm | - | - | - |
| 1777818317 | 26.67° C | 33% | 1025 hPa | 0 mm | - | - | - |
| 1777816514 | 26.67° C | 33% | 1025 hPa | 0 mm | - | - | - |
| 1777814712 | 27.22° C | 33% | 1025 hPa | 0 mm | - | - | - |
| 1777812909 | 27.78° C | 31% | 1025 hPa | 0 mm | - | - | - |
| 1777811107 | 27.78° C | 31% | 1025 hPa | 0 mm | - | - | - |
| 1777809303 | 27.78° C | 30% | 1025 hPa | 0 mm | - | - | - |
| 1777807501 | 27.78° C | 31% | 1025 hPa | 0 mm | - | - | - |
| 1777805697 | 28.33° C | 27% | 1025 hPa | 0 mm | - | - | - |
| 1777803895 | 27.22° C | 30% | 1025 hPa | 0 mm | - | - | - |
| 1777802092 | 27.78° C | 35% | 1025 hPa | 0 mm | - | - | - |
| 1777800289 | 27.78° C | 29% | 1025 hPa | 0 mm | - | - | - |
| 1777798487 | 28.33° C | 27% | 1025 hPa | 0 mm | - | - | - |
| 1777796684 | 28.33° C | 22% | 1025 hPa | 0 mm | - | - | - |
| 1777794881 | 28.89° C | 24% | 1025 hPa | 0 mm | - | - | - |
| 1777793078 | 28.33° C | 25% | 1025 hPa | 0 mm | - | - | - |
| 1777791276 | 28.89° C | 26% | 1025 hPa | 0 mm | - | - | - |
| 1777789474 | 28.33° C | 27% | 1025 hPa | 0 mm | - | - | - |
| 1777787670 | 28.89° C | 27% | 1025 hPa | 0 mm | - | - | - |
| 1777785868 | 28.89° C | 31% | 1025 hPa | 0 mm | - | - | - |
| 1777784065 | 28.33° C | 32% | 1025 hPa | 0 mm | - | - | - |
| 1777782255 | 28.33° C | 32% | 1025 hPa | 0 mm | - | - | - |
| 1777780453 | 27.78° C | 34% | 1025 hPa | 0 mm | - | - | - |
| 1777778650 | 27.78° C | 34% | 1025 hPa | 0 mm | - | - | - |
| 1777776847 | 27.78° C | 34% | 1025 hPa | 0 mm | - | - | - |
* Rain latest hour (hover to see other rain measurements)
** Current wind speed in m/s (hover to see current wind gust speed)